Location: Castelbiague
(43.0361°N, 0.9246°E)
Time: 09:47:54
(UTC+00:00)

Cosmos 1025 Rocket - Pass Details

Date: 17 June 2021
Orbit: 593 x 619 km, 82.5° (Epoch: 27 July)

Event Time Altitude Azimuth Distance (km) Brightness Sun altitude
Exits shadow 21:22:41 20° 174° (S) 1,422 4.4 -14.6°
Maximum altitude 21:25:37 66° 96° (E) 673 3.0 -14.9°
Drops below altitude 10° 21:29:58 10° 14° (NNE) 1,981 6.2 -15.4°
Sets 21:32:12 0° 12° (NNE) 2,886 7.2 -15.6°
